Zurück zum Katalog

STARLINK-36603

AktivKommunikationSSO
NORAD 67592·PAYLOAD·🇺🇸 United States

Gestartet Jan 29, 2026 von Vandenberg Space Force Base

Loading…

Nächste Überflüge (nächste 24 Stunden)

TLE

AktuellSource: CelesTrak SupGP

Epoche: Sep 14, 2026, 23:14 UTC

1 67592C 26018D   26257.96854167  .00006584  00000+0  20441-3 0  2577
2 67592  97.2853 321.5047 0000545  91.7873 230.8553 15.33433253    15

Verfolge STARLINK-36603 in Echtzeit mit AllMySat

Download on the App Store